Unalakleet, AK

6:23 PM AKST on December 17, 2017 (GMT -0900)
Unalakleet

Weather History for PAUN - March, 2013

Change the Weather History Date:

Sunday, March 17, 2013

  Actual Average Record
Temperature  
Mean Temperature 21 °F -  
Max Temperature 28 °F 19 °F 39 °F (1981)
Min Temperature 12 °F 0 °F -31 °F (1966)
Degree Days  
Heating Degree Days 44    
Moisture  
Dew Point 11 °F    
Average Humidity 65    
Maximum Humidity 86    
Minimum Humidity 55    
Precipitation  
Precipitation 0.00 in - - ()
Sea Level Pressure  
Sea Level Pressure 30.24 in    
Wind  
Wind Speed 16 mph (ENE)    
Max Wind Speed 23 mph    
Max Gust Speed 22 mph    
Visibility 10 miles    
Events      
Averages and records for this station are not official NWS values.
T = Trace of Precipitation, MM = Missing Value Source: NWS Daily Summary

Daily Weather History Graph

Daily Weather History Graph

Search for Another Location

Airport or City:

Trip Planner

Search our weather history database for the weather conditions in past years. The results will help you decide how hot, cold, wet, or windy it might be!

Date:

Astronomy

Mar. 17, 2013 Rise Set
Actual Time 8:52 AM AKDT 8:51 PM AKDT
Civil Twilight 8:05 AM AKDT 9:38 PM AKDT
Nautical Twilight 7:08 AM AKDT 10:36 PM AKDT
Astronomical Twilight 6:05 AM AKDT 11:40 PM AKDT
Moon 10:11 AM AKDT (3/17) 4:09 AM AKDT (3/17)
Length of Visible Light 13h 33m
Length of Day
11h 58m
Waxing Crescent, 33% of the Moon is Illuminated
Mar 17
Waxing Crescent
Mar 19
First Quarter
Mar 27
Full
Apr 2
Last Quarter
Apr 10
New

Hourly Weather History & Observations

Time (AKDT) Temp. Windchill Dew Point Humidity Pressure Visibility Wind Dir Wind Speed Gust Speed Precip Events Conditions
12:16 AM 19.4 °F 5.0 °F 8.6 °F 63% 30.13 in 10.0 mi East 16.1 mph - N/A   Overcast
12:36 AM 19.4 °F 3.6 °F 10.4 °F 68% 30.14 in 10.0 mi East 19.6 mph - N/A   Overcast
12:56 AM 19.4 °F 3.2 °F 8.6 °F 63% 30.14 in 10.0 mi East 20.7 mph - N/A   Overcast
1:16 AM 19.4 °F 4.5 °F 10.4 °F 68% 30.15 in 10.0 mi East 17.3 mph - N/A   Overcast
1:36 AM 19.4 °F 4.1 °F 10.4 °F 68% 30.15 in 10.0 mi East 18.4 mph - N/A   Overcast
1:56 AM 19.4 °F 5.0 °F 10.4 °F 68% 30.17 in 10.0 mi East 16.1 mph - N/A   Overcast
2:16 AM 19.4 °F 5.0 °F 10.4 °F 68% 30.17 in 10.0 mi ENE 16.1 mph - N/A   Overcast
2:36 AM 19.4 °F 5.0 °F 10.4 °F 68% 30.18 in 10.0 mi East 16.1 mph - N/A   Overcast
2:56 AM 19.4 °F 5.0 °F 10.4 °F 68% 30.19 in 10.0 mi ENE 16.1 mph - N/A   Overcast
3:16 AM 19.4 °F 5.0 °F 10.4 °F 68% 30.19 in 10.0 mi ENE 16.1 mph - N/A   Overcast
3:36 AM 19.4 °F 4.5 °F 10.4 °F 68% 30.20 in 10.0 mi ENE 17.3 mph - N/A   Overcast
3:56 AM 19.4 °F 3.6 °F 12.2 °F 74% 30.20 in 10.0 mi ENE 19.6 mph - N/A   Overcast
4:16 AM 19.4 °F 4.5 °F 10.4 °F 68% 30.21 in 10.0 mi ENE 17.3 mph - N/A   Overcast
4:36 AM 19.4 °F 5.0 °F 10.4 °F 68% 30.21 in 10.0 mi ENE 16.1 mph - N/A   Overcast
4:56 AM 19.4 °F 6.0 °F 10.4 °F 68% 30.22 in 10.0 mi ENE 13.8 mph - N/A   Overcast
5:16 AM 19.4 °F 6.0 °F 10.4 °F 68% 30.22 in 10.0 mi ENE 13.8 mph 21.9 mph N/A   Overcast
5:36 AM 19.4 °F 5.0 °F 12.2 °F 74% 30.22 in 10.0 mi East 16.1 mph - N/A   Overcast
5:56 AM 19.4 °F 5.0 °F 12.2 °F 74% 30.23 in 10.0 mi East 16.1 mph - N/A   Overcast
6:16 AM 19.4 °F 5.5 °F 12.2 °F 74% 30.23 in 10.0 mi ENE 15.0 mph - N/A   Overcast
6:36 AM 19.4 °F 6.0 °F 12.2 °F 74% 30.24 in 10.0 mi ENE 13.8 mph - N/A   Overcast
6:56 AM 19.4 °F 5.5 °F 10.4 °F 68% 30.24 in 10.0 mi ENE 15.0 mph - N/A   Mostly Cloudy
7:16 AM 19.4 °F 5.0 °F 10.4 °F 68% 30.24 in 10.0 mi ENE 16.1 mph - N/A   Partly Cloudy
7:36 AM 19.4 °F 5.5 °F 6.8 °F 58% 30.24 in 10.0 mi ENE 15.0 mph - N/A   Clear
7:56 AM 17.6 °F 2.2 °F 6.8 °F 63% 30.24 in 10.0 mi ENE 17.3 mph - N/A   Clear
8:16 AM 17.6 °F 2.7 °F 6.8 °F 63% 30.25 in 10.0 mi ENE 16.1 mph - N/A   Clear
8:36 AM 17.6 °F 1.3 °F 6.8 °F 63% 30.25 in 10.0 mi ENE 19.6 mph - N/A   Clear
8:56 AM 17.6 °F 0.9 °F 6.8 °F 63% 30.25 in 10.0 mi ENE 20.7 mph - N/A   Clear
9:16 AM 17.6 °F 0.5 °F 5.0 °F 58% 30.25 in 10.0 mi East 21.9 mph - N/A   Clear
9:36 AM 17.6 °F 0.1 °F 6.8 °F 63% 30.25 in 10.0 mi East 23.0 mph - N/A   Clear
9:56 AM 17.6 °F 0.1 °F 6.8 °F 63% 30.25 in 10.0 mi East 23.0 mph - N/A   Clear
10:16 AM 17.6 °F 0.9 °F 6.8 °F 63% 30.26 in 10.0 mi East 20.7 mph - N/A   Clear
10:36 AM 17.6 °F 1.3 °F 6.8 °F 63% 30.26 in 10.0 mi East 19.6 mph - N/A   Clear
10:56 AM 19.4 °F 3.2 °F 6.8 °F 58% 30.26 in 10.0 mi East 20.7 mph - N/A   Clear
11:16 AM 19.4 °F 3.2 °F 6.8 °F 58% 30.26 in 10.0 mi East 20.7 mph - N/A   Clear
11:36 AM 19.4 °F 3.2 °F 6.8 °F 58% 30.27 in 10.0 mi East 20.7 mph - N/A   Clear
11:56 AM 21.2 °F 5.2 °F 8.6 °F 58% 30.26 in 10.0 mi East 21.9 mph - N/A   Clear
12:16 PM 21.2 °F 5.2 °F 8.6 °F 58% 30.27 in 10.0 mi East 21.9 mph - N/A   Clear
12:36 PM 21.2 °F 5.6 °F 8.6 °F 58% 30.27 in 10.0 mi East 20.7 mph - N/A   Clear
12:56 PM 21.2 °F 5.2 °F 10.4 °F 63% 30.28 in 10.0 mi East 21.9 mph - N/A   Clear
1:16 PM 23.0 °F 8.0 °F 10.4 °F 59% 30.28 in 10.0 mi East 20.7 mph - N/A   Clear
1:36 PM 23.0 °F 7.6 °F 10.4 °F 59% 30.28 in 10.0 mi East 21.9 mph - N/A   Clear
1:56 PM 24.8 °F 11.1 °F 12.2 °F 59% 30.28 in 10.0 mi East 18.4 mph - N/A   Clear
2:16 PM 24.8 °F 11.1 °F 12.2 °F 59% 30.28 in 10.0 mi East 18.4 mph - N/A   Clear
2:36 PM 24.8 °F 11.5 °F 12.2 °F 59% 30.28 in 10.0 mi East 17.3 mph - N/A   Clear
2:56 PM 26.6 °F 14.3 °F 12.2 °F 55% 30.28 in 10.0 mi East 16.1 mph - N/A   Clear
3:16 PM 26.6 °F 14.3 °F 14.0 °F 59% 30.27 in 10.0 mi East 16.1 mph - N/A   Clear
3:36 PM 26.6 °F 14.7 °F 14.0 °F 59% 30.27 in 10.0 mi East 15.0 mph - N/A   Clear
3:56 PM 26.6 °F 15.2 °F 14.0 °F 59% 30.27 in 10.0 mi East 13.8 mph - N/A   Clear
4:16 PM 26.6 °F 15.2 °F 15.8 °F 64% 30.27 in 10.0 mi East 13.8 mph - N/A   Clear
4:36 PM 28.4 °F 18.5 °F 15.8 °F 59% 30.27 in 10.0 mi East 11.5 mph - N/A   Clear
4:56 PM 28.4 °F 18.5 °F 17.6 °F 64% 30.26 in 10.0 mi East 11.5 mph - N/A   Clear
5:16 PM 28.4 °F 18.0 °F 15.8 °F 59% 30.26 in 10.0 mi ENE 12.7 mph - N/A   Clear
5:36 PM 28.4 °F 19.1 °F 15.8 °F 59% 30.26 in 10.0 mi ENE 10.4 mph - N/A   Clear
5:56 PM 28.4 °F 19.7 °F 15.8 °F 59% 30.26 in 10.0 mi East 9.2 mph - N/A   Clear
6:16 PM 28.4 °F 19.7 °F 15.8 °F 59% 30.26 in 10.0 mi East 9.2 mph - N/A   Clear
6:36 PM 26.6 °F 18.2 °F 15.8 °F 64% 30.26 in 10.0 mi East 8.1 mph - N/A   Clear
6:56 PM 26.6 °F 17.5 °F 15.8 °F 64% 30.26 in 10.0 mi ENE 9.2 mph - N/A   Clear
7:16 PM 26.6 °F 18.2 °F 15.8 °F 64% 30.26 in 10.0 mi ENE 8.1 mph - N/A   Clear
7:36 PM 26.6 °F 19.1 °F 15.8 °F 64% 30.26 in 10.0 mi ENE 6.9 mph - N/A   Clear
7:56 PM 26.6 °F 22.6 °F 14.0 °F 59% 30.26 in 10.0 mi ENE 3.5 mph - N/A   Clear
8:16 PM 26.6 °F 22.6 °F 14.0 °F 59% 30.27 in 10.0 mi North 3.5 mph - N/A   Clear
8:36 PM 24.8 °F 16.9 °F 12.2 °F 59% 30.27 in 10.0 mi North 6.9 mph - N/A   Clear
8:56 PM 21.2 °F 16.4 °F 12.2 °F 68% 30.27 in 10.0 mi NNE 3.5 mph - N/A   Clear
9:16 PM 23.0 °F 18.4 °F 12.2 °F 63% 30.27 in 10.0 mi NE 3.5 mph - N/A   Clear
9:36 PM 23.0 °F 13.9 °F 12.2 °F 63% 30.27 in 10.0 mi North 8.1 mph - N/A   Clear
9:56 PM 21.2 °F - 10.4 °F 63% 30.27 in 10.0 mi Calm Calm - N/A   Clear
10:16 PM 23.0 °F 14.7 °F 15.8 °F 74% 30.27 in 10.0 mi NNW 6.9 mph - N/A   Clear
10:36 PM 19.4 °F - 10.4 °F 68% 30.27 in 10.0 mi Calm Calm - N/A   Clear
10:56 PM 21.2 °F - 12.2 °F 68% 30.27 in 10.0 mi Calm Calm - N/A   Clear
11:16 PM 15.8 °F 7.2 °F 12.2 °F 86% 30.27 in 10.0 mi SE 5.8 mph - N/A   Scattered Clouds
11:36 PM 14.0 °F 8.2 °F 10.4 °F 86% 30.27 in 10.0 mi SE 3.5 mph - N/A   Partly Cloudy
11:56 PM 12.2 °F - 8.6 °F 85% 30.27 in 10.0 mi Calm Calm - N/A   Clear